K5BOU Weather Reports


Display with metric or nautical units.
time (UTC)temp
F
wind
direction
speed
MPH
gust
MPH
rain 1hr
in
rain 24hr
in
rain mn
in
humidity
%
barometer
mb
20260905034510 82 190 0.0 0.0 0.00 0.30 0.30 97 1012.4
20260905034009 82 194 1.0 2.0 0.00 0.30 0.30 96 1012.1
20260905033503 82 183 1.0 3.0 0.00 0.30 0.30 96 1012.3
20260905032959 82 179 0.0 0.0 0.00 0.30 0.30 96 1012.1
20260905032454 82 164 0.0 1.0 0.00 0.30 0.30 96 1012.2
20260905031948 82 171 0.0 0.0 0.00 0.30 0.30 97 1012.3
20260905031444 82 191 0.0 0.0 0.00 0.30 0.30 96 1012.1
20260905030939 82 191 0.0 0.0 0.00 0.30 0.30 95 1012.2
20260905030435 83 191 0.0 1.0 0.00 0.30 0.30 93 1012.1
20260905025934 83 173 0.0 0.0 0.00 0.30 0.30 93 1012.0
20260905025429 83 169 0.0 0.0 0.00 0.30 0.30 93 1011.9
20260905024926 83 172 0.0 0.0 0.00 0.30 0.30 92 1012.1
20260905024426 83 165 0.0 1.0 0.00 0.30 0.30 92 1012.0
20260905023921 83 177 1.0 2.0 0.00 0.30 0.30 92 1011.8
20260905023416 83 175 1.0 2.0 0.00 0.30 0.30 92 1011.8
20260905022915 83 171 0.0 2.0 0.00 0.30 0.30 91 1011.8
20260905022410 84 172 0.0 1.0 0.00 0.30 0.30 91 1011.8
20260905021906 84 167 1.0 2.0 0.00 0.30 0.30 90 1011.7
20260905021400 84 161 2.0 3.0 0.00 0.30 0.30 90 1011.7
20260905020856 84 180 1.0 2.0 0.00 0.30 0.30 89 1011.4
20260905020349 84 177 0.0 3.0 0.00 0.30 0.30 89 1011.4
20260905015844 85 152 1.0 2.0 0.00 0.30 0.30 88 1011.3
20260905015342 85 153 1.0 2.0 0.00 0.30 0.30 88 1011.6
20260905014837 85 136 1.0 2.0 0.00 0.30 0.30 87 1011.2
20260905014333 85 173 0.0 1.0 0.00 0.30 0.30 87 1011.2
20260905013828 85 148 1.0 3.0 0.00 0.30 0.30 86 1011.1
20260905013324 85 181 1.0 2.0 0.00 0.30 0.30 86 1011.1
20260905012819 86 179 0.0 2.0 0.00 0.30 0.30 85 1010.9
20260905012315 86 176 0.0 2.0 0.00 0.30 0.30 85 1010.9
20260905011811 86 180 0.0 3.0 0.00 0.30 0.30 84 1011.0
20260905011306 86 167 0.0 2.0 0.00 0.30 0.30 84 1010.8
20260905010801 86 180 0.0 2.0 0.00 0.30 0.30 83 1010.8
20260905010256 87 149 0.0 2.0 0.00 0.30 0.30 83 1010.8
20260905005753 87 171 1.0 2.0 0.00 0.30 0.30 82 1010.7
20260905005253 87 155 1.0 5.0 0.00 0.30 0.30 82 1010.7
20260905004753 87 178 0.0 3.0 0.00 0.30 0.30 81 1010.8
20260905004248 87 177 1.0 2.0 0.00 0.30 0.30 80 1010.9
20260905003742 87 177 1.0 9.0 0.00 0.30 0.30 79 1010.6
20260905003238 88 85 3.0 5.0 0.00 0.30 0.30 78 1010.7
20260905002734 88 171 1.0 2.0 0.00 0.30 0.30 78 1010.6
20260905002234 89 144 2.0 3.0 0.00 0.30 0.30 77 1010.5
20260905001729 89 168 2.0 3.0 0.00 0.30 0.30 77 1010.3
20260905001228 89 170 2.0 2.0 0.00 0.30 0.30 77 1010.5
20260905000723 89 197 2.0 7.0 0.00 0.30 0.30 77 1010.3
20260905000219 90 177 2.0 5.0 0.00 0.30 0.30 76 1010.2
20260904235714 90 193 1.0 1.0 0.00 0.30 0.30 75 1010.2
20260904235209 90 186 2.0 7.0 0.00 0.30 0.30 75 1010.0
20260904234703 90 171 2.0 3.0 0.00 0.30 0.30 75 1010.2
20260904234159 90 168 0.0 2.0 0.00 0.30 0.30 75 1010.3
20260904233654 90 177 2.0 7.0 0.00 0.30 0.30 75 1010.1
20260904233150 91 211 3.0 8.0 0.00 0.30 0.30 75 1010.2
20260904232647 90 174 3.0 6.0 0.00 0.30 0.30 75 1010.3
20260904232143 91 159 3.0 3.0 0.00 0.30 0.30 75 1010.2
20260904231638 90 177 1.0 5.0 0.00 0.30 0.30 76 1010.2
20260904231133 91 155 1.0 7.0 0.00 0.30 0.30 75 1010.1
20260904230632 91 160 2.0 3.0 0.00 0.30 0.30 73 1010.3
20260904230128 92 191 3.0 7.0 0.00 0.30 0.30 71 1010.0
20260904225626 92 120 0.0 6.0 0.00 0.30 0.30 68 1010.3
20260904225120 93 163 1.0 2.0 0.00 0.30 0.30 68 1010.3
20260904224615 94 196 1.0 7.0 0.00 0.30 0.30 67 1009.9
20260904224110 94 198 0.0 1.0 0.00 0.30 0.30 69 1010.5
20260904223609 93 178 2.0 3.0 0.00 0.30 0.30 67 1010.2
20260904223105 94 180 2.0 3.0 0.00 0.30 0.30 68 1010.3
20260904222601 94 166 2.0 6.0 0.00 0.30 0.30 68 1010.3
20260904222055 94 40 1.0 5.0 0.00 0.30 0.30 69 1010.3
20260904221550 93 193 0.0 1.0 0.00 0.30 0.30 71 1010.1
20260904221045 93 125 2.0 3.0 0.00 0.30 0.30 68 1010.4
20260904220544 94 187 1.0 3.0 0.00 0.30 0.30 67 1010.3
20260904220040 93 191 0.0 1.0 0.00 0.30 0.30 69 1010.3
20260904215534 93 164 1.0 5.0 0.00 0.30 0.30 70 1010.3
20260904215030 94 141 1.0 3.0 0.00 0.30 0.30 69 1010.4
20260904214525 94 202 1.0 1.0 0.00 0.30 0.30 69 1010.5
20260904214021 94 202 1.0 2.0 0.00 0.30 0.30 71 1010.6
20260904213518 93 201 0.0 3.0 0.00 0.30 0.30 71 1010.6
20260904213016 93 196 2.0 2.0 0.00 0.30 0.30 70 1010.6
20260904212515 93 186 2.0 2.0 0.00 0.30 0.30 70 1010.7
20260904212010 93 190 2.0 5.0 0.00 0.30 0.30 71 1010.7
20260904211504 93 201 2.0 6.0 0.00 0.30 0.30 70 1010.7
20260904211000 93 220 3.0 6.0 0.00 0.30 0.30 72 1010.9
20260904210459 93 199 0.0 0.0 0.00 0.30 0.30 73 1010.7
20260904205954 93 184 0.0 3.0 0.00 0.30 0.30 72 1010.7
20260904205450 92 186 3.0 5.0 0.00 0.30 0.30 70 1010.8
20260904204947 93 175 0.0 5.0 0.00 0.30 0.30 72 1011.1
20260904204443 94 187 0.0 2.0 0.00 0.30 0.30 73 1011.0
20260904203938 93 209 1.0 2.0 0.00 0.30 0.30 71 1011.2
20260904203435 93 191 0.0 2.0 0.00 0.30 0.30 74 1011.2
20260904202930 92 197 0.0 1.0 0.00 0.30 0.30 76 1011.3
20260904202426 92 216 2.0 3.0 0.00 0.30 0.30 75 1011.3
20260904201922 93 188 0.0 2.0 0.00 0.30 0.30 73 1011.5
20260904201417 92 167 0.0 1.0 0.00 0.30 0.30 75 1011.6
20260904200913 92 162 2.0 5.0 0.00 0.30 0.30 76 1011.6
20260904200411 91 92 1.0 2.0 0.00 0.30 0.30 75 1011.8
20260904195906 92 181 1.0 1.0 0.00 0.30 0.30 75 1011.6
20260904195404 91 161 1.0 2.0 0.00 0.30 0.30 74 1011.8
20260904194859 91 178 2.0 2.0 0.00 0.30 0.30 75 1011.7
20260904194358 91 173 0.0 3.0 0.00 0.30 0.30 77 1012.0
20260904193854 90 173 0.0 1.0 0.00 0.30 0.30 80 1011.9
20260904193349 89 203 1.0 1.0 0.00 0.30 0.30 81 1012.2
20260904192844 88 174 1.0 2.0 0.00 0.30 0.30 84 1012.1
20260904192339 87 185 0.0 1.0 0.00 0.30 0.30 86 1012.0
20260904191836 87 267 1.0 3.0 0.00 0.30 0.30 88 1011.8
20260904191332 84 200 0.0 1.0 0.00 0.30 0.30 95 1012.2
20260904190828 82 48 1.0 6.0 0.00 0.30 0.30 99 1012.1
20260904190324 81 201 0.0 1.0 0.00 0.30 0.30 99 1012.2
20260904185820 80 18 1.0 2.0 0.00 0.30 0.30 99 1012.2
20260904185315 80 167 0.0 1.0 0.00 0.30 0.30 99 1012.5
20260904184815 80 179 0.0 0.0 0.00 0.30 0.30 99 1012.5
20260904184310 80 163 0.0 0.0 0.00 0.30 0.30 99 1013.1
20260904183805 80 204 0.0 0.0 0.00 0.30 0.30 99 1013.2
20260904183300 79 199 0.0 0.0 0.00 0.30 0.30 99 1013.4
20260904182755 78 191 0.0 0.0 0.00 0.30 0.30 99 1013.5
20260904182250 78 190 0.0 0.0 0.00 0.30 0.30 99 1013.8
20260904181746 78 167 0.0 0.0 0.00 0.30 0.30 99 1013.4
20260904181246 78 186 0.0 0.0 0.00 0.30 0.30 99 1013.4
20260904180741 78 172 0.0 2.0 0.00 0.30 0.30 99 1013.4
20260904180236 79 176 0.0 0.0 0.00 0.30 0.30 99 1013.4
20260904175735 79 187 0.0 0.0 0.00 0.30 0.30 99 1013.3
20260904175234 79 190 0.0 0.0 0.00 0.30 0.30 99 1013.4
20260904174729 79 174 0.0 1.0 0.00 0.30 0.30 99 1013.5
20260904174225 79 176 0.0 0.0 0.00 0.30 0.30 99 1013.3
20260904173721 79 172 0.0 0.0 0.00 0.30 0.30 99 1013.2
20260904173221 80 177 0.0 0.0 0.00 0.30 0.30 99 1013.1
20260904172718 79 183 0.0 0.0 0.00 0.30 0.30 99 1013.4
20260904172216 79 173 0.0 0.0 0.00 0.30 0.30 99 1013.5
20260904171712 78 169 0.0 0.0 0.00 0.30 0.30 99 1013.6
20260904171206 78 174 0.0 0.0 0.00 0.30 0.30 99 1013.6
20260904170703 77 174 0.0 0.0 0.00 0.30 0.30 99 1013.6
20260904170159 77 182 0.0 0.0 0.00 0.30 0.30 99 1013.6
20260904165657 76 179 0.0 0.0 0.00 0.30 0.30 99 1013.5
20260904165156 77 167 0.0 0.0 0.00 0.30 0.30 99 1013.5
20260904164652 77 166 0.0 0.0 0.00 0.30 0.30 99 1013.4
20260904164147 77 193 0.0 0.0 0.00 0.30 0.30 99 1013.5
20260904163643 76 196 0.0 1.0 0.00 0.30 0.30 99 1013.5
20260904163138 76 204 0.0 5.0 0.00 0.30 0.30 99 1013.8
20260904162637 77 187 0.0 1.0 0.00 0.30 0.30 99 1013.4
20260904162132 78 163 0.0 0.0 0.00 0.30 0.30 96 1013.6
20260904161627 77 297 7.0 18.0 0.00 0.30 0.30 94 1013.8
20260904161122 77 211 0.0 2.0 0.66 0.30 0.30 99 1014.0
20260904160618 78 249 9.0 11.0 0.54 0.28 0.28 99 1013.8
20260904160114 78 214 0.0 2.0 0.42 0.19 0.19 99 1013.5
20260904155608 78 217 0.0 3.0 0.85 0.18 0.18 98 1013.3
20260904155102 79 239 2.0 6.0 0.54 0.09 0.09 95 1013.2
20260904154556 80 259 5.0 8.0 0.17 0.03 0.03 92 1013.1
20260904154051 84 222 6.0 8.0 0.00 0.00 0.00 86 1013.1
20260904153550 84 215 4.0 8.0 0.00 0.00 0.00 85 1012.9
20260904153047 86 256 4.0 7.0 0.00 0.00 0.00 89 1012.6
20260904152542 87 211 2.0 3.0 0.00 0.00 0.00 87 1012.6
20260904152038 87 174 0.0 2.0 0.00 0.00 0.00 86 1012.7
20260904151533 88 182 1.0 2.0 0.00 0.00 0.00 85 1012.9
20260904151027 89 179 3.0 5.0 0.00 0.00 0.00 85 1012.7
20260904150526 88 164 2.0 2.0 0.00 0.00 0.00 86 1012.5
20260904150021 88 169 2.0 3.0 0.00 0.00 0.00 86 1012.6
20260904145516 89 198 3.0 5.0 0.00 0.00 0.00 83 1012.6
20260904145011 89 193 0.0 1.0 0.00 0.00 0.00 84 1012.8
20260904144507 90 177 2.0 2.0 0.00 0.00 0.00 85 1012.7
20260904144003 89 158 0.0 2.0 0.00 0.00 0.00 86 1012.5
20260904143458 90 146 3.0 6.0 0.00 0.00 0.00 85 1012.7
20260904142955 89 189 1.0 5.0 0.00 0.00 0.00 87 1012.5
20260904142451 89 151 1.0 2.0 0.00 0.00 0.00 86 1012.8
20260904141950 89 139 0.0 1.0 0.00 0.00 0.00 86 1012.6
20260904141445 89 148 0.0 3.0 0.00 0.00 0.00 87 1012.6
20260904140942 88 191 1.0 2.0 0.00 0.00 0.00 88 1012.5
20260904140441 87 171 0.0 3.0 0.00 0.00 0.00 91 1012.6
20260904135940 86 182 1.0 1.0 0.00 0.00 0.00 92 1012.7
20260904135440 86 170 0.0 2.0 0.00 0.00 0.00 92 1012.7
20260904134937 86 177 0.0 1.0 0.00 0.00 0.00 92 1012.7
20260904134436 86 166 0.0 2.0 0.00 0.00 0.00 92 1012.6
20260904133931 86 171 1.0 2.0 0.00 0.00 0.00 92 1012.7
20260904133426 87 173 1.0 1.0 0.00 0.00 0.00 92 1012.6
20260904132922 87 169 0.0 1.0 0.00 0.00 0.00 92 1012.7
20260904132417 86 176 0.0 0.0 0.00 0.00 0.00 93 1012.5
20260904131916 85 177 0.0 2.0 0.00 0.00 0.00 94 1012.6
20260904131412 84 171 0.0 1.0 0.00 0.00 0.00 97 1012.2
20260904130908 83 160 0.0 0.0 0.00 0.00 0.00 99 1012.3
20260904130406 82 161 0.0 0.0 0.00 0.00 0.00 99 1012.4
20260904125901 82 163 0.0 0.0 0.00 0.00 0.00 99 1012.3
20260904125358 81 170 0.0 0.0 0.00 0.00 0.00 99 1012.3
20260904124857 81 190 0.0 0.0 0.00 0.00 0.00 99 1012.2
20260904124354 80 191 0.0 0.0 0.00 0.00 0.00 99 1012.2
20260904123849 80 192 0.0 0.0 0.00 0.00 0.00 99 1012.2
20260904123344 80 192 0.0 0.0 0.00 0.00 0.00 99 1012.0
20260904122839 80 188 0.0 0.0 0.00 0.00 0.00 99 1012.2
20260904122338 79 188 0.0 0.0 0.00 0.00 0.00 99 1012.1
20260904121834 79 188 0.0 0.0 0.00 0.00 0.00 99 1012.0
20260904121330 79 189 0.0 0.0 0.00 0.00 0.00 99 1011.9
20260904120826 79 189 0.0 0.0 0.00 0.00 0.00 99 1011.9
20260904120321 79 189 0.0 0.0 0.00 0.00 0.00 99 1012.0
20260904115816 79 175 0.0 0.0 0.00 0.00 0.00 99 1011.9
20260904115312 79 173 0.0 0.0 0.00 0.00 0.00 99 1011.8
20260904114811 79 173 0.0 0.0 0.00 0.00 0.00 99 1011.8
20260904114306 79 173 0.0 0.0 0.00 0.00 0.00 99 1011.8
20260904113802 79 173 0.0 0.0 0.00 0.00 0.00 99 1011.8
20260904113300 79 173 0.0 0.0 0.00 0.00 0.00 99 1011.8
20260904112755 79 171 0.0 0.0 0.00 0.00 0.00 99 1011.9
20260904112251 79 173 0.0 0.0 0.00 0.00 0.00 99 1011.7
20260904111747 79 173 0.0 0.0 0.00 0.00 0.00 99 1011.6
20260904111243 79 173 0.0 0.0 0.00 0.00 0.00 99 1011.6
20260904110738 79 173 0.0 0.0 0.00 0.00 0.00 99 1011.6
20260904110237 79 173 0.0 0.0 0.00 0.00 0.00 99 1011.6
20260904105732 79 173 0.0 0.0 0.00 0.00 0.00 99 1011.6
20260904105227 79 173 0.0 0.0 0.00 0.00 0.00 99 1011.6
20260904104722 79 166 0.0 0.0 0.00 0.00 0.00 99 1011.6
20260904104218 79 164 0.0 0.0 0.00 0.00 0.00 99 1011.5
20260904103715 79 163 0.0 0.0 0.00 0.00 0.00 99 1011.6
20260904103209 79 187 0.0 0.0 0.00 0.00 0.00 99 1011.6
20260904102705 79 188 0.0 0.0 0.00 0.00 0.00 99 1011.5
20260904102200 79 188 0.0 0.0 0.00 0.00 0.00 99 1011.2
20260904101657 79 188 0.0 0.0 0.00 0.00 0.00 99 1011.5
20260904101152 79 188 0.0 0.0 0.00 0.00 0.00 99 1011.5
20260904100648 79 188 0.0 0.0 0.00 0.00 0.00 99 1011.3
20260904100143 79 188 0.0 0.0 0.00 0.00 0.00 99 1011.2
20260904095643 79 188 0.0 0.0 0.00 0.00 0.00 99 1011.3
20260904095137 79 188 0.0 0.0 0.00 0.00 0.00 99 1011.3
20260904094633 79 188 0.0 0.0 0.00 0.00 0.00 99 1011.3
20260904094133 79 188 0.0 0.0 0.00 0.00 0.00 99 1011.2
20260904093630 79 188 0.0 0.0 0.00 0.00 0.00 99 1011.3
20260904093129 79 188 0.0 0.0 0.00 0.00 0.00 99 1011.2
20260904092626 79 188 0.0 0.0 0.00 0.00 0.00 99 1011.1
20260904092122 79 188 0.0 0.0 0.00 0.00 0.00 99 1011.2
20260904091618 79 188 0.0 0.0 0.00 0.00 0.00 99 1011.3
20260904091117 79 188 0.0 0.0 0.00 0.00 0.00 99 1011.2
20260904090613 79 188 0.0 0.0 0.00 0.00 0.00 99 1011.2
20260904090109 79 188 0.0 0.0 0.00 0.00 0.00 99 1011.3
20260904085603 80 188 0.0 0.0 0.00 0.00 0.00 99 1011.1
20260904085102 79 188 0.0 0.0 0.00 0.00 0.00 99 1011.2
20260904084558 79 187 0.0 0.0 0.00 0.00 0.00 99 1011.4
20260904084055 79 187 0.0 0.0 0.00 0.00 0.00 99 1011.6
20260904083550 79 188 0.0 0.0 0.00 0.00 0.00 99 1011.4
20260904083046 79 188 0.0 0.0 0.00 0.00 0.00 99 1011.3
20260904082541 79 188 0.0 0.0 0.00 0.00 0.00 99 1011.3
20260904082036 80 188 0.0 0.0 0.00 0.00 0.00 99 1011.2
20260904081532 80 188 0.0 0.0 0.00 0.00 0.00 99 1011.5
20260904081027 80 188 0.0 0.0 0.00 0.00 0.00 99 1011.3
20260904080522 80 188 0.0 0.0 0.00 0.00 0.00 99 1011.2
20260904080019 80 188 0.0 0.0 0.00 0.00 0.00 99 1011.4
20260904075514 80 188 0.0 0.0 0.00 0.00 0.00 99 1011.4
20260904075009 80 188 0.0 0.0 0.00 0.00 0.00 99 1011.3
20260904074503 80 188 0.0 0.0 0.00 0.00 0.00 99 1011.3
20260904073958 80 188 0.0 0.0 0.00 0.00 0.00 99 1011.3
20260904073453 80 188 0.0 0.0 0.00 0.00 0.00 99 1011.4
20260904072949 80 188 0.0 0.0 0.00 0.00 0.00 99 1011.4
20260904072445 80 188 0.0 0.0 0.00 0.00 0.00 99 1011.5
20260904071945 80 183 0.0 0.0 0.00 0.00 0.00 99 1011.3
20260904071441 80 182 0.0 0.0 0.00 0.00 0.00 99 1011.6
20260904070935 80 189 0.0 0.0 0.00 0.00 0.00 99 1011.5
20260904070433 80 189 0.0 0.0 0.00 0.00 0.00 99 1011.5
20260904065928 80 197 0.0 0.0 0.00 0.00 0.00 99 1011.5
20260904065425 80 181 1.0 1.0 0.00 0.00 0.00 99 1011.5
20260904064925 80 194 0.0 0.0 0.00 0.00 0.00 99 1011.8
20260904064421 80 185 0.0 2.0 0.00 0.00 0.00 99 1011.8
20260904063916 80 182 1.0 1.0 0.00 0.00 0.00 99 1011.8
20260904063413 80 198 0.0 2.0 0.00 0.00 0.00 99 1011.8
20260904062907 80 194 0.0 0.0 0.00 0.00 0.00 99 1011.7
20260904062403 80 178 0.0 0.0 0.00 0.00 0.00 99 1011.9
20260904061859 80 179 0.0 0.0 0.00 0.00 0.00 99 1011.8
20260904061355 80 170 0.0 0.0 0.00 0.00 0.00 99 1011.6
20260904060851 80 170 0.0 0.0 0.00 0.00 0.00 99 1011.8
20260904060347 81 170 0.0 0.0 0.00 0.00 0.00 99 1011.7
20260904055842 81 170 0.0 0.0 0.00 0.00 0.00 99 1011.8
20260904055337 81 170 0.0 0.0 0.00 0.00 0.00 99 1011.7
20260904054832 81 170 0.0 0.0 0.00 0.00 0.00 99 1011.7
20260904054328 81 169 0.0 0.0 0.00 0.00 0.00 99 1011.6
20260904053824 81 169 0.0 0.0 0.00 0.00 0.00 99 1011.6
20260904053323 81 169 0.0 0.0 0.00 0.00 0.00 99 1011.6
20260904052819 81 169 0.0 0.0 0.00 0.00 0.00 99 1011.7
20260904052316 81 176 0.0 1.0 0.00 0.00 0.00 99 1011.7
20260904051812 81 177 0.0 1.0 0.00 0.00 0.00 99 1011.6
20260904051307 81 160 2.0 2.0 0.00 0.00 0.00 99 1011.5
20260904050802 81 178 0.0 1.0 0.00 0.00 0.00 99 1011.5
20260904050258 81 186 0.0 0.0 0.00 0.00 0.00 99 1011.6
20260904045753 81 182 0.0 0.0 0.00 0.18 0.18 99 1011.7
20260904045247 81 175 0.0 2.0 0.00 0.18 0.18 99 1011.7
20260904044742 81 177 0.0 0.0 0.00 0.18 0.18 99 1011.7
20260904044239 81 183 0.0 0.0 0.00 0.18 0.18 99 1011.7
20260904043735 81 178 0.0 1.0 0.00 0.18 0.18 99 1011.5
20260904043231 81 173 0.0 1.0 0.00 0.18 0.18 99 1011.4
20260904042726 81 163 0.0 0.0 0.00 0.18 0.18 99 1011.6
20260904042222 81 165 0.0 0.0 0.00 0.18 0.18 99 1011.6
20260904041721 81 170 0.0 0.0 0.00 0.18 0.18 99 1011.8
20260904041218 81 167 0.0 1.0 0.00 0.18 0.18 99 1011.5
20260904040714 81 166 0.0 1.0 0.00 0.18 0.18 99 1011.4
20260904040209 81 170 0.0 1.0 0.00 0.18 0.18 99 1011.5
20260904035705 81 180 0.0 0.0 0.00 0.18 0.18 99 1011.5
20260904035200 81 177 0.0 1.0 0.00 0.18 0.18 99 1011.5
20260904034659 81 154 0.0 1.0 0.00 0.18 0.18 99 1011.4